Location: USNO
(38.9242°N, 77.0663°W)
Time: 05:15:45
(UTC-04:00)

ISS - Pass Details

Date: 12 October 2017
Orbit: 401 x 408 km, 51.6° (Epoch: 19 October)

Event Time Altitude Azimuth Distance (km) Brightness Sun altitude
Rises 21:10:42 0° 298° (WNW) 2,325 1.1 -31.1°
Reaches altitude 10° 21:12:59 10° 286° (WNW) 1,463 -0.1 -31.5°
Enters shadow 21:13:07 11° 284° (WNW) 1,413 -0.2 -31.5°
